Location: Newark
(50.0336°N, 22.0047°E)
Time: 20:51:58
(UTC+00:00)

Envisat - Pass Details

Date: 26 January 2020
Orbit: 764 x 766 km, 98.1° (Epoch: 22 February)

Event Time Altitude Azimuth Distance (km) Brightness Sun altitude
Rises 16:51:26 0° 185° (S) 3,221 6.4 -15.3°
Reaches altitude 10° 16:53:52 10° 193° (SSW) 2,299 5.8 -15.7°
Maximum altitude 16:58:38 41° 263° (W) 1,112 4.4 -16.5°
Drops below altitude 10° 17:03:26 10° 333° (NNW) 2,315 5.7 -17.2°
Sets 17:05:54 0° 341° (NNW) 3,246 6.4 -17.6°
